Weather History for Buffalo, WY

Change the Weather History Date:

Friday, January 18, 2013

  Actual Average Record
Temperature  
Mean Temperature 42 °F 28 °F  
Max Temperature 52 °F 39 °F 56 °F (2005)
Min Temperature 32 °F 17 °F -1 °F (2012)
Degree Days  
Heating Degree Days 23 37  
Month to date heating degree days 677 672  
Since 1 July heating degree days 3402 3719  
Cooling Degree Days 0 0  
Month to date cooling degree days 0 0  
Year to date cooling degree days 0 0  
Moisture  
Dew Point 13 °F    
Average Humidity 34    
Maximum Humidity 49    
Minimum Humidity 19    
Precipitation  
Precipitation 0.00 in 0.02 in 0.10 in (2008)
Month to date precipitation 0.09 0.22  
Year to date precipitation 0.09 0.22  
Sea Level Pressure  
Sea Level Pressure 29.96 in    
Wind  
Wind Speed 4 mph (SSE)    
Max Wind Speed 20 mph    
Max Gust Speed 24 mph    
Visibility 10 miles    
Events      
T = Trace of Precipitation, MM = Missing Value Source: NWS Daily Summary

Daily Weather History Graph

Daily Weather History Graph

Search for Another Location

Airport:

Trip Planner

Search our weather history database for the weather conditions in past years. The results will help you decide how hot, cold, wet, or windy it might be!

Date:

Astronomy

Jan. 18, 2013 Rise Set
Actual Time 7:37 AM MST 4:57 PM MST
Civil Twilight 7:05 AM MST 5:29 PM MST
Nautical Twilight 6:29 AM MST 6:05 PM MST
Astronomical Twilight 5:55 AM MST 6:40 PM MST
Moon 10:58 AM MST (1/18) 12:09 AM MST (1/18)
Length of Visible Light 10h 24m
Length of Day
9h 20m
Waxing Crescent, 48% of the Moon is Illuminated
Jan 18
Waxing Crescent
Jan 18
First Quarter
Jan 26
Full
Feb 3
Last Quarter
Feb 10
New

Hourly Weather History & Observations

Time (MST) Temp. Windchill Dew Point Humidity Pressure Visibility Wind Dir Wind Speed Gust Speed Precip Events Conditions
12:53 AM 39.9 °F 37.8 °F 8.1 °F 27% 30.06 in 10.0 mi SSE 3.5 mph - N/A   Clear
1:53 AM 44.1 °F - 5.0 °F 20% 30.04 in 10.0 mi Calm Calm - N/A   Clear
2:53 AM 39.9 °F - 6.1 °F 25% 30.04 in 10.0 mi Calm Calm - N/A   Clear
3:53 AM 36.0 °F 28.5 °F 10.0 °F 34% 30.04 in 10.0 mi WSW 10.4 mph - N/A   Clear
4:53 AM 39.0 °F - 8.1 °F 28% 30.03 in 10.0 mi Calm Calm - N/A   Clear
5:53 AM 35.1 °F 31.0 °F 10.0 °F 35% 30.01 in 10.0 mi SW 4.6 mph - N/A   Clear
6:53 AM 41.0 °F 36.4 °F 7.0 °F 25% 30.00 in 10.0 mi North 6.9 mph - N/A   Clear
7:53 AM 37.9 °F - 7.0 °F 28% 30.01 in 10.0 mi Calm Calm - N/A   Clear
8:53 AM 41.0 °F 37.1 °F 10.9 °F 29% 30.01 in 10.0 mi South 5.8 mph - N/A   Clear
9:53 AM 48.9 °F - 10.0 °F 21% 29.99 in 10.0 mi SE 5.8 mph - N/A   Clear
10:53 AM 50.0 °F - 16.0 °F 26% 29.97 in 10.0 mi Calm Calm - N/A   Clear
11:53 AM 52.0 °F - 15.1 °F 23% 29.93 in 10.0 mi Calm Calm - N/A   Clear
12:53 PM 48.9 °F - 21.9 °F 35% 29.90 in 10.0 mi SSE 5.8 mph - N/A   Clear
1:53 PM 48.0 °F - 23.0 °F 37% 29.89 in 10.0 mi South 5.8 mph - N/A   Clear
2:53 PM 45.0 °F 40.6 °F 26.1 °F 48% 29.89 in 10.0 mi South 8.1 mph - N/A   Clear
3:53 PM 48.0 °F - 23.0 °F 37% 29.91 in 10.0 mi Variable 4.6 mph - N/A   Clear
4:53 PM 44.1 °F 42.5 °F 21.0 °F 40% 29.91 in 10.0 mi ENE 3.5 mph - N/A   Clear
5:53 PM 45.0 °F 41.8 °F 15.1 °F 30% 29.93 in 10.0 mi NW 5.8 mph - N/A   Clear
6:53 PM 44.1 °F 42.5 °F 12.0 °F 27% 29.92 in 10.0 mi Variable 3.5 mph - N/A   Partly Cloudy
7:53 PM 44.1 °F 40.8 °F 12.9 °F 28% 29.93 in 10.0 mi Variable 5.8 mph - N/A   Mostly Cloudy
8:53 PM 46.0 °F 41.4 °F 12.0 °F 25% 29.92 in 10.0 mi NNW 9.2 mph - N/A   Partly Cloudy
9:53 PM 45.0 °F 42.6 °F 12.0 °F 26% 29.92 in 10.0 mi NE 4.6 mph - N/A   Overcast
10:53 PM 43.0 °F 40.3 °F 14.0 °F 31% 29.94 in 10.0 mi Variable 4.6 mph - N/A   Overcast
11:53 PM 42.1 °F 38.4 °F 12.9 °F 31% 29.96 in 10.0 mi North 5.8 mph - N/A   Clear